ITY1421 LIRF-LIMF

Flight info

Callsign ITY1421
Flight time 0h 53m
Altitude 34000
Route NEMBO DCT ELB DCT LAGEN
Aircraft A20N/M-SDE2E3FGHIRWXY/LB1

Departure

Time 2026-05-04 07:22
Airport Rome–Fiumicino Leonardo da Vinci International Airport (LIRF)

Arrival

Time 2026-05-04 08:16
Airport Turin Airport (LIMF)
Time Latitude Longitude Altitude Speed Heading
2026-05-04 06:59 41.79728 12.25638 15 ft 0 kts 295°
2026-05-04 07:13 41.79725 12.25645 15 ft 2 kts 295°
2026-05-04 07:14 41.79681 12.25691 15 ft 2 kts
2026-05-04 07:14 41.79671 12.25688 15 ft 0 kts 22°
2026-05-04 07:15 41.79665 12.25683 15 ft 0 kts 25°
2026-05-04 07:16 41.79671 12.25687 15 ft 2 kts 25°
2026-05-04 07:16 41.79699 12.25705 15 ft 6 kts 25°
2026-05-04 07:17 41.79744 12.25734 15 ft 8 kts 25°
2026-05-04 07:17 41.79812 12.25776 15 ft 12 kts 25°
2026-05-04 07:17 41.79897 12.25840 15 ft 15 kts 25°
2026-05-04 07:17 41.80003 12.25905 15 ft 17 kts 25°
2026-05-04 07:18 41.80118 12.25977 15 ft 18 kts 25°
2026-05-04 07:18 41.80236 12.26049 15 ft 18 kts 24°
2026-05-04 07:18 41.80353 12.26122 15 ft 18 kts 25°
2026-05-04 07:18 41.80470 12.26178 15 ft 15 kts 17°
2026-05-04 07:19 41.80537 12.26278 14 ft 15 kts 70°
2026-05-04 07:19 41.80573 12.26411 14 ft 15 kts 69°
2026-05-04 07:19 41.80612 12.26550 14 ft 16 kts 69°
2026-05-04 07:19 41.80651 12.26694 13 ft 16 kts 69°
2026-05-04 07:20 41.80693 12.26843 13 ft 17 kts 69°
2026-05-04 07:20 41.80731 12.26980 12 ft 11 kts 69°
2026-05-04 07:20 41.80781 12.27047 12 ft 10 kts
2026-05-04 07:20 41.80858 12.27016 12 ft 12 kts 340°
2026-05-04 07:22 41.79604 12.22036 1480 ft 174 kts 246°
2026-05-04 07:22 41.79300 12.20424 2071 ft 188 kts 262°
2026-05-04 07:23 41.79229 12.18614 2626 ft 204 kts 266°
2026-05-04 07:23 41.79196 12.16623 3161 ft 225 kts 266°
2026-05-04 07:23 41.79153 12.14458 3767 ft 243 kts 266°
2026-05-04 07:23 41.79096 12.12122 4389 ft 261 kts 266°
2026-05-04 07:24 41.79034 12.09647 5187 ft 271 kts 267°
2026-05-04 07:24 41.79016 12.07153 6145 ft 275 kts 268°
2026-05-04 07:24 41.79020 12.04597 7112 ft 278 kts 268°
2026-05-04 07:24 41.79024 12.02022 8010 ft 282 kts 268°
2026-05-04 07:25 41.79023 11.99384 8896 ft 286 kts 268°
2026-05-04 07:26 41.78962 11.78979 13981 ft 339 kts 268°
2026-05-04 07:27 41.78948 11.75846 14769 ft 342 kts 268°
2026-05-04 07:27 41.78933 11.72650 15568 ft 344 kts 268°
2026-05-04 07:27 41.78917 11.69492 16322 ft 346 kts 269°
2026-05-04 07:27 41.78901 11.66263 17061 ft 348 kts 269°
2026-05-04 07:28 41.78884 11.63003 17801 ft 350 kts 269°
2026-05-04 07:28 41.78867 11.59790 18522 ft 351 kts 269°
2026-05-04 07:28 41.79132 11.56516 19171 ft 356 kts 284°
2026-05-04 07:28 41.80116 11.53496 19947 ft 357 kts 301°
2026-05-04 07:29 41.81628 11.50912 20700 ft 358 kts 309°
2026-05-04 07:29 41.83281 11.48404 21364 ft 361 kts 310°
2026-05-04 07:29 41.84957 11.45877 21984 ft 364 kts 310°
2026-05-04 07:29 41.86646 11.43325 22617 ft 367 kts 310°
2026-05-04 07:30 41.88318 11.40782 23216 ft 370 kts 310°
2026-05-04 07:30 41.90023 11.38182 23823 ft 373 kts 310°
2026-05-04 07:30 41.91724 11.35586 24410 ft 376 kts 309°
2026-05-04 07:30 41.93454 11.32937 24995 ft 379 kts 309°
2026-05-04 07:31 41.95197 11.30266 25563 ft 382 kts 309°
2026-05-04 07:31 41.96939 11.27593 26123 ft 385 kts 309°
2026-05-04 07:33 42.09536 11.08175 29530 ft 404 kts 309°
2026-05-04 07:33 42.11402 11.05290 29938 ft 406 kts 308°
2026-05-04 07:33 42.13246 11.02431 30345 ft 408 kts 308°
2026-05-04 07:33 42.15107 10.99545 30720 ft 410 kts 308°
2026-05-04 07:34 42.16971 10.96647 31058 ft 412 kts 308°
2026-05-04 07:34 42.18856 10.93715 31390 ft 414 kts 308°
2026-05-04 07:34 42.20735 10.90789 31781 ft 414 kts 308°
2026-05-04 07:34 42.22616 10.87863 32231 ft 413 kts 308°
2026-05-04 07:35 42.24470 10.84978 32711 ft 410 kts 309°
2026-05-04 07:35 42.26424 10.82139 33155 ft 410 kts 312°
2026-05-04 07:35 42.28466 10.79484 33587 ft 409 kts 315°
2026-05-04 07:35 42.30600 10.77002 33987 ft 409 kts 318°
2026-05-04 07:36 42.32866 10.74651 34385 ft 409 kts 321°
2026-05-04 07:36 42.35208 10.72487 34706 ft 410 kts 323°
2026-05-04 07:38 42.52100 10.57879 36118 ft 415 kts 324°
2026-05-04 07:38 42.54526 10.55773 36128 ft 415 kts 324°
2026-05-04 07:38 42.59381 10.51554 36134 ft 415 kts 324°
2026-05-04 07:39 42.64238 10.47322 36129 ft 415 kts 324°
2026-05-04 07:39 42.69084 10.43091 36134 ft 416 kts 324°
2026-05-04 07:40 42.73860 10.38696 36121 ft 415 kts 320°
2026-05-04 07:40 42.78361 10.33825 36125 ft 414 kts 317°
2026-05-04 07:41 42.82838 10.28882 36128 ft 415 kts 317°
2026-05-04 07:41 42.87313 10.23929 36115 ft 416 kts 317°
2026-05-04 07:42 42.91808 10.18951 36116 ft 416 kts 317°
2026-05-04 07:42 42.96291 10.13976 36111 ft 416 kts 317°
2026-05-04 07:43 43.00780 10.08987 36112 ft 416 kts 317°
2026-05-04 07:43 43.05242 10.04018 36111 ft 416 kts 317°
2026-05-04 07:44 43.09716 9.99025 36107 ft 416 kts 317°
2026-05-04 07:44 43.14209 9.94001 36104 ft 417 kts 317°
2026-05-04 07:45 43.18675 9.88997 36101 ft 417 kts 317°
2026-05-04 07:45 43.23135 9.83988 36092 ft 417 kts 317°
2026-05-04 07:46 43.27637 9.78924 36104 ft 417 kts 317°
2026-05-04 07:46 43.32087 9.73910 36105 ft 418 kts 317°
2026-05-04 07:47 43.36570 9.68849 36105 ft 417 kts 317°
2026-05-04 07:49 43.54463 9.48543 36099 ft 420 kts 317°
2026-05-04 07:49 43.58975 9.43398 36102 ft 420 kts 317°
2026-05-04 07:50 43.63467 9.38264 36098 ft 420 kts 317°
2026-05-04 07:50 43.67933 9.33149 36093 ft 419 kts 316°
2026-05-04 07:51 43.70170 9.30587 35935 ft 415 kts 316°
2026-05-04 07:51 43.72371 9.28060 35450 ft 414 kts 316°
2026-05-04 07:51 43.74574 9.25527 34899 ft 415 kts 316°
2026-05-04 07:51 43.76811 9.22954 34315 ft 415 kts 316°
2026-05-04 07:52 43.79019 9.20408 33645 ft 416 kts 316°
2026-05-04 07:52 43.81212 9.17877 32887 ft 419 kts 316°
2026-05-04 07:52 43.83477 9.15263 32062 ft 423 kts 317°
2026-05-04 07:52 43.85733 9.12656 31234 ft 427 kts 317°
2026-05-04 07:53 43.87997 9.10038 30524 ft 428 kts 317°
2026-05-04 07:54 44.03451 8.92111 26826 ft 401 kts 317°
2026-05-04 07:55 44.05587 8.89620 26292 ft 399 kts 317°
2026-05-04 07:55 44.07684 8.87174 25773 ft 396 kts 317°
2026-05-04 07:55 44.09786 8.84720 25257 ft 393 kts 317°
2026-05-04 07:55 44.11866 8.82288 24724 ft 391 kts 317°
2026-05-04 07:56 44.13930 8.79872 24202 ft 388 kts 317°
2026-05-04 07:56 44.15980 8.77470 23690 ft 385 kts 317°
2026-05-04 07:56 44.18021 8.75077 23178 ft 383 kts 317°
2026-05-04 07:56 44.20040 8.72707 22688 ft 380 kts 317°
2026-05-04 07:57 44.22047 8.70349 22212 ft 377 kts 317°
2026-05-04 07:57 44.24046 8.67997 21735 ft 374 kts 317°
2026-05-04 07:57 44.26022 8.65671 21262 ft 371 kts 317°
2026-05-04 07:57 44.27976 8.63371 20795 ft 369 kts 317°
2026-05-04 07:58 44.29916 8.61082 20322 ft 366 kts 317°
2026-05-04 07:58 44.31858 8.58789 19841 ft 364 kts 317°
2026-05-04 07:58 44.33770 8.56529 19375 ft 361 kts 318°
2026-05-04 07:58 44.35666 8.54287 18914 ft 358 kts 318°
2026-05-04 07:59 44.37552 8.52055 18457 ft 356 kts 318°
2026-05-04 07:59 44.39402 8.49783 18002 ft 353 kts 315°
2026-05-04 07:59 44.41143 8.47358 17554 ft 350 kts 312°
2026-05-04 07:59 44.42794 8.44954 17110 ft 347 kts 311°
2026-05-04 08:00 44.44456 8.42518 16650 ft 345 kts 311°
2026-05-04 08:00 44.46116 8.40078 16194 ft 343 kts 311°
2026-05-04 08:00 44.47734 8.37699 15768 ft 340 kts 311°
2026-05-04 08:02 44.58923 8.21210 12636 ft 328 kts 310°
2026-05-04 08:02 44.60490 8.18894 12183 ft 327 kts 310°
2026-05-04 08:02 44.62031 8.16614 11725 ft 326 kts 310°
2026-05-04 08:03 44.63593 8.14303 11279 ft 325 kts 310°
2026-05-04 08:03 44.65132 8.12022 11017 ft 317 kts 310°
2026-05-04 08:03 44.66612 8.09830 10833 ft 307 kts 310°
2026-05-04 08:03 44.68071 8.07667 10586 ft 300 kts 310°
2026-05-04 08:04 44.69491 8.05555 10213 ft 299 kts 310°
2026-05-04 08:04 44.70913 8.03436 9808 ft 298 kts 310°
2026-05-04 08:04 44.72332 8.01324 9425 ft 297 kts 311°
2026-05-04 08:04 44.73743 7.99219 9034 ft 296 kts 311°
2026-05-04 08:05 44.75144 7.97130 8674 ft 294 kts 311°
2026-05-04 08:05 44.76540 7.95048 8305 ft 291 kts 312°
2026-05-04 08:05 44.77926 7.92979 7953 ft 289 kts 312°
2026-05-04 08:05 44.79304 7.90920 7600 ft 287 kts 313°
2026-05-04 08:06 44.80667 7.88884 7237 ft 285 kts 313°
2026-05-04 08:06 44.82004 7.86884 7005 ft 277 kts 313°
2026-05-04 08:06 44.83295 7.84953 6833 ft 268 kts 313°
2026-05-04 08:06 44.84555 7.83068 6656 ft 260 kts 313°
2026-05-04 08:08 44.92706 7.70832 4836 ft 240 kts 314°
2026-05-04 08:08 44.93842 7.69121 4532 ft 239 kts 314°
2026-05-04 08:10 45.03842 7.63948 3848 ft 181 kts
2026-05-04 08:11 45.05088 7.64034 3614 ft 179 kts
2026-05-04 08:11 45.07518 7.64181 3141 ft 170 kts
2026-05-04 08:11 45.08699 7.64251 2917 ft 168 kts
2026-05-04 08:12 45.09829 7.64320 2694 ft 160 kts
2026-05-04 08:12 45.10908 7.64386 2495 ft 148 kts
2026-05-04 08:12 45.11926 7.64449 2308 ft 146 kts
2026-05-04 08:12 45.12931 7.64513 2121 ft 145 kts
2026-05-04 08:13 45.13937 7.64576 1929 ft 143 kts
2026-05-04 08:13 45.14939 7.64639 1738 ft 143 kts
2026-05-04 08:13 45.15920 7.64700 1552 ft 142 kts
2026-05-04 08:13 45.16912 7.64762 1363 ft 142 kts
2026-05-04 08:14 45.17887 7.64822 1172 ft 141 kts
2026-05-04 08:14 45.18871 7.64881 989 ft 140 kts
2026-05-04 08:14 45.19811 7.64949 965 ft 119 kts
2026-05-04 08:16 45.20519 7.64723 985 ft 20 kts 182°
2026-05-04 08:16 45.20370 7.64714 981 ft 22 kts 183°
2026-05-04 08:16 45.20207 7.64703 977 ft 23 kts 182°
2026-05-04 08:17 45.20041 7.64693 973 ft 23 kts 182°
2026-05-04 08:17 45.19876 7.64682 968 ft 24 kts 182°
2026-05-04 08:17 45.19742 7.64696 965 ft 12 kts 173°
2026-05-04 08:17 45.19671 7.64694 964 ft 11 kts 184°
2026-05-04 08:19 45.19321 7.64522 957 ft 0 kts 258°
2026-05-04 08:19 45.19321 7.64520 957 ft 0 kts 258°